Weather History for Wink, TX

Change the Weather History Date:

Monday, October 25, 2010

  Actual Average Record
Temperature  
Mean Temperature 68 °F -  
Max Temperature 84 °F 76 °F 93 °F (1959)
Min Temperature 53 °F 45 °F 28 °F (1980)
Cooling Degree Days 4    
Growing Degree Days 18 (Base 50)    
Moisture  
Dew Point 33 °F    
Average Humidity 24    
Maximum Humidity 45    
Minimum Humidity 15    
Precipitation  
Precipitation 0.00 in - - ()
Sea Level Pressure  
Sea Level Pressure 29.54 in    
Wind  
Wind Speed 16 mph (WSW)    
Max Wind Speed 32 mph    
Max Gust Speed 45 mph    
Visibility 10 miles    
Events      
Averages and records for this station are not official NWS values.
T = Trace of Precipitation, MM = Missing Value Source: NWS Daily Summary

Daily Weather History Graph

Daily Weather History Graph

Search for Another Location

Airport:

Trip Planner

Search our weather history database for the weather conditions in past years. The results will help you decide how hot, cold, wet, or windy it might be!

Date:

Astronomy

Oct. 25, 2010 Rise Set
Actual Time 8:03 AM CDT 7:09 PM CDT
Civil Twilight 7:38 AM CDT 7:34 PM CDT
Nautical Twilight 7:10 AM CDT 8:03 PM CDT
Astronomical Twilight 6:41 AM CDT 8:31 PM CDT
Moon 8:53 PM CDT (10/25) 10:35 AM CDT (10/25)
Length of Visible Light 11h 55m
Length of Day
11h 06m
Waning Gibbous, 93% of the Moon is Illuminated
Oct 25
Waning Gibbous
Oct 30
Last Quarter
Nov 5
New
Nov 13
First Quarter
Nov 21
Full

Hourly Weather History & Observations

Time (CDT) Temp. Dew Point Humidity Pressure Visibility Wind Dir Wind Speed Gust Speed Precip Events Conditions
12:53 AM 59.0 °F 33.1 °F 38% 29.74 in 10.0 mi SSW 5.8 mph - N/A   Clear
1:53 AM 53.1 °F 32.0 °F 45% 29.71 in 10.0 mi South 5.8 mph - N/A   Clear
2:53 AM 59.0 °F 33.1 °F 38% 29.68 in 10.0 mi SW 9.2 mph - N/A   Clear
3:53 AM 60.8 °F 33.8 °F 36% 29.76 in 10.0 mi SW 10.4 mph - N/A   Clear
4:53 AM 60.1 °F 32.0 °F 35% 29.61 in 10.0 mi SW 10.4 mph - N/A   Clear
5:53 AM 59.0 °F 32.0 °F 36% 29.60 in 10.0 mi SSW 9.2 mph - N/A   Clear
6:53 AM 64.0 °F 33.1 °F 31% 29.58 in 10.0 mi WSW 13.8 mph 19.6 mph N/A   Clear
7:53 AM 64.9 °F 34.0 °F 32% 29.57 in 10.0 mi WSW 17.3 mph - N/A   Clear
8:53 AM 69.1 °F 34.0 °F 27% 29.57 in 10.0 mi WSW 20.7 mph 27.6 mph N/A   Clear
9:53 AM 72.0 °F 34.0 °F 25% 29.56 in 10.0 mi WSW 24.2 mph 29.9 mph N/A   Clear
10:53 AM 75.0 °F 35.1 °F 23% 29.55 in 10.0 mi WSW 18.4 mph 31.1 mph N/A   Clear
11:19 AM 78.8 °F 35.6 °F 21% 29.65 in 10.0 mi WSW 27.6 mph 41.4 mph N/A   Scattered Clouds
11:41 AM 80.6 °F 35.6 °F 20% 29.63 in 10.0 mi WSW 32.2 mph 43.7 mph N/A   Mostly Cloudy
11:53 AM 81.0 °F 36.0 °F 20% 29.50 in 10.0 mi WSW 29.9 mph 44.9 mph N/A   Mostly Cloudy
12:21 PM 82.4 °F 35.6 °F 19% 29.63 in 10.0 mi WSW 26.5 mph 38.0 mph N/A   Partly Cloudy
12:53 PM 82.9 °F 35.1 °F 18% 29.49 in 10.0 mi WSW 32.2 mph 42.6 mph N/A   Clear
1:53 PM 84.2 °F 35.6 °F 18% 29.57 in 10.0 mi WSW 26.5 mph 43.7 mph N/A   Scattered Clouds
2:53 PM 84.0 °F 34.0 °F 17% 29.44 in 10.0 mi West 28.8 mph 39.1 mph N/A   Clear
3:53 PM 84.9 °F 34.0 °F 16% 29.38 in 10.0 mi West 27.6 mph 39.1 mph N/A   Clear
4:53 PM 84.0 °F 33.1 °F 16% 29.38 in 10.0 mi WSW 25.3 mph 33.4 mph N/A   Clear
5:53 PM 82.9 °F 33.1 °F 17% 29.38 in 10.0 mi WSW 17.3 mph 27.6 mph N/A   Clear
6:53 PM 82.9 °F 32.0 °F 16% 29.37 in 10.0 mi West 25.3 mph 34.5 mph N/A   Clear
7:53 PM 82.9 °F 30.9 °F 15% 29.38 in 10.0 mi West 26.5 mph 34.5 mph N/A   Clear
8:53 PM 82.0 °F 30.9 °F 16% 29.41 in 10.0 mi West 27.6 mph 39.1 mph N/A   Clear
9:53 PM 80.1 °F 32.0 °F 17% 29.44 in 10.0 mi West 17.3 mph 27.6 mph N/A   Clear
10:53 PM 79.0 °F 30.9 °F 17% 29.48 in 10.0 mi West 18.4 mph 27.6 mph N/A   Clear
11:53 PM 77.0 °F 33.1 °F 20% 29.50 in 10.0 mi West 21.9 mph 28.8 mph N/A   Clear